Preview of NWS' New Version of Forecast
This preview is not operational and should not be used for support decisions.

Regional Weather Roundup (RWR)

Issued by National Weather Service (NWS)

                            
057 
ASUS44 KMEG 261200
RWRTN 
TENNESSEE HOURLY STATE WEATHER ROUNDUP
NATIONAL WEATHER SERVICE MEMPHIS TN
700 AM CDT TUE MAR 26 2019

TNZ002-004-019-021-049-052-054-088>092-261300-
WEST TENNESSEE
  
CITY           SKY/WX    TMP DP  RH WIND       PRES   REMARKS
MEMPHIS INTL   FAIR      46  40  79 N9        30.28R                  
NWS MEMPHIS      N/A     44 N/A N/A MISG        N/A                   
JACKSON        FAIR      43  38  82 NE9       30.28R                  
DYERSBURG      FAIR      44  39  82 N6        30.31R                  
$$

TNZ008-025-027-028-033-062-065-066-261300-
NORTH MIDDLE TENNESSEE
  
CITY           SKY/WX    TMP DP  RH WIND       PRES   REMARKS
NASHVILLE      FAIR      39  28  64 N12       30.25R WCI  32          
CLARKSVILLE    FAIR      35  26  69 CALM      30.30R                  
SMYRNA         FAIR      39  30  70 N12       30.26R WCI  32          
CROSSVILLE     CLOUDY    39  35  86 N9        30.16S WCI  33          
$$

TNZ061-075-076-078-094-096-097-261300-
SOUTH MIDDLE TENNESSEE
  
CITY           SKY/WX    TMP DP  RH WIND       PRES   REMARKS
FAYETTEVILLE   CLOUDY    45  39  81 N10       30.18R                  
$$

TNZ017-018-042-046-047-261300-
NORTHEAST TENNESSEE
  
CITY           SKY/WX    TMP DP  RH WIND       PRES   REMARKS
TRI CITIES     CLOUDY    44  39  82 N8        30.13R                  
$$

TNZ012-013-036-069-073-074-261300-
CENTRAL EAST TENNESSEE
  
CITY           SKY/WX    TMP DP  RH WIND       PRES   REMARKS
KNOXVILLE      CLOUDY    44  39  82 N8        30.15R                  
OAK RIDGE      CLOUDY    45  36  70 VRB6      30.18R                  
$$

TNZ083-085-099-261300-
SOUTHEAST TENNESSEE
  
CITY           SKY/WX    TMP DP  RH WIND       PRES   REMARKS
CHATTANOOGA    CLOUDY    48  40  73 N13       30.15S                  
$$

SKY/WX REPORTED AS FAIR MEANS FEW OR NO CLOUDS BELOW
12 THOUSAND FEET.

  


000
ASUS44 KMEG 261200
RWRTN 
TENNESSEE HOURLY STATE WEATHER ROUNDUP
NATIONAL WEATHER SERVICE MEMPHIS TN
700 AM CDT TUE MAR 26 2019

TNZ002-004-019-021-049-052-054-088>092-261300-
WEST TENNESSEE
  
CITY           SKY/WX    TMP DP  RH WIND       PRES   REMARKS
MEMPHIS INTL   FAIR      46  40  79 N9        30.28R                  
NWS MEMPHIS      N/A     44 N/A N/A MISG        N/A                   
JACKSON        FAIR      43  38  82 NE9       30.28R                  
DYERSBURG      FAIR      44  39  82 N6        30.31R                  
$$

TNZ008-025-027-028-033-062-065-066-261300-
NORTH MIDDLE TENNESSEE
  
CITY           SKY/WX    TMP DP  RH WIND       PRES   REMARKS
NASHVILLE      FAIR      39  28  64 N12       30.25R WCI  32          
CLARKSVILLE    FAIR      35  26  69 CALM      30.30R                  
SMYRNA         FAIR      39  30  70 N12       30.26R WCI  32          
CROSSVILLE     CLOUDY    39  35  86 N9        30.16S WCI  33          
$$

TNZ061-075-076-078-094-096-097-261300-
SOUTH MIDDLE TENNESSEE
  
CITY           SKY/WX    TMP DP  RH WIND       PRES   REMARKS
FAYETTEVILLE   CLOUDY    45  39  81 N10       30.18R                  
$$

TNZ017-018-042-046-047-261300-
NORTHEAST TENNESSEE
  
CITY           SKY/WX    TMP DP  RH WIND       PRES   REMARKS
TRI CITIES     CLOUDY    44  39  82 N8        30.13R                  
$$

TNZ012-013-036-069-073-074-261300-
CENTRAL EAST TENNESSEE
  
CITY           SKY/WX    TMP DP  RH WIND       PRES   REMARKS
KNOXVILLE      CLOUDY    44  39  82 N8        30.15R                  
OAK RIDGE      CLOUDY    45  36  70 VRB6      30.18R                  
$$

TNZ083-085-099-261300-
SOUTHEAST TENNESSEE
  
CITY           SKY/WX    TMP DP  RH WIND       PRES   REMARKS
CHATTANOOGA    CLOUDY    48  40  73 N13       30.15S                  
$$

SKY/WX REPORTED AS FAIR MEANS FEW OR NO CLOUDS BELOW
12 THOUSAND FEET.